Time,TemperatureF,DewpointF,PressureIn,WindDirection,WindDirectionDegrees,WindSpeedMPH,WindSpeedGustMPH,Humidity,HourlyPrecipIn,Conditions,Clouds,dailyrainin,SoftwareType,DateUTC
2013-06-21 00:00:00,63.5,45.6,29.76,ESE,108,0.0,3.0,52,0.00,,SKC,0.00,VWS V14.01,2013-06-21 07:00:00,
2013-06-21 00:04:00,63.4,45.5,29.76,ESE,107,0.0,3.0,52,0.00,,SKC,0.00,VWS V14.01,2013-06-21 07:04:00,
2013-06-21 00:09:00,63.2,45.8,29.76,ESE,107,0.0,0.0,53,0.00,,SKC,0.00,VWS V14.01,2013-06-21 07:09:00,
2013-06-21 00:10:00,63.2,45.8,29.76,ESE,107,0.0,3.0,53,0.00,,SKC,0.00,VWS V14.01,2013-06-21 07:10:00,
2013-06-21 00:14:00,63.1,45.7,29.76,ESE,107,0.0,2.0,53,0.00,,SKC,0.00,VWS V14.01,2013-06-21 07:14:00,
2013-06-21 00:19:00,62.9,45.5,29.76,ESE,107,0.0,0.0,53,0.00,,SKC,0.00,VWS V14.01,2013-06-21 07:19:00,
2013-06-21 00:20:00,62.9,45.5,29.76,ESE,107,0.0,4.0,53,0.00,,SKC,0.00,VWS V14.01,2013-06-21 07:20:00,
2013-06-21 00:24:00,62.9,46.0,29.76,ESE,107,0.0,3.0,54,0.00,,SKC,0.00,VWS V14.01,2013-06-21 07:24:00,
2013-06-21 00:29:00,62.8,45.4,29.76,ESE,107,0.0,0.0,53,0.00,,SKC,0.00,VWS V14.01,2013-06-21 07:29:00,
2013-06-21 00:30:00,62.8,45.4,29.76,ESE,107,0.0,3.0,53,0.00,,SKC,0.00,VWS V14.01,2013-06-21 07:30:00,
2013-06-21 00:35:00,62.7,45.3,29.76,ESE,107,0.0,1.0,53,0.00,,SKC,0.00,VWS V14.01,2013-06-21 07:35:00,
2013-06-21 00:40:00,62.6,45.2,29.76,ESE,107,0.0,1.0,53,0.00,,SKC,0.00,VWS V14.01,2013-06-21 07:40:00,
2013-06-21 00:45:00,62.6,45.7,29.76,ESE,107,0.0,2.0,54,0.00,,SKC,0.00,VWS V14.01,2013-06-21 07:45:00,
2013-06-21 00:50:00,62.5,45.7,29.76,ESE,107,0.0,1.0,54,0.00,,SKC,0.00,VWS V14.01,2013-06-21 07:50:00,
2013-06-21 00:55:00,62.5,45.7,29.76,ESE,107,0.0,1.0,54,0.00,,SKC,0.00,VWS V14.01,2013-06-21 07:55:00,
2013-06-21 01:00:00,62.3,45.5,29.75,ESE,107,0.0,2.0,54,0.00,,SKC,0.00,VWS V14.01,2013-06-21 08:00:00,
2013-06-21 01:05:00,62.0,45.2,29.75,ESE,107,0.0,2.0,54,0.00,,SKC,0.00,VWS V14.01,2013-06-21 08:05:00,
2013-06-21 01:10:00,61.8,45.5,29.75,ESE,107,0.0,1.0,55,0.00,,SKC,0.00,VWS V14.01,2013-06-21 08:10:00,
2013-06-21 01:15:00,61.6,45.3,29.75,ESE,107,0.0,1.0,55,0.00,,SKC,0.00,VWS V14.01,2013-06-21 08:15:00,
2013-06-21 01:20:00,61.4,45.6,29.75,ESE,107,0.0,0.0,56,0.00,,SKC,0.00,VWS V14.01,2013-06-21 08:20:00,
2013-06-21 01:25:00,61.2,45.4,29.75,ESE,107,0.0,1.0,56,0.00,,SKC,0.00,VWS V14.01,2013-06-21 08:25:00,
2013-06-21 01:30:00,61.0,45.2,29.75,ESE,107,0.0,0.0,56,0.00,,SKC,0.00,VWS V14.01,2013-06-21 08:30:00,
2013-06-21 01:35:00,60.9,45.6,29.75,ESE,107,0.0,0.0,57,0.00,,SKC,0.00,VWS V14.01,2013-06-21 08:35:00,
2013-06-21 01:40:00,60.6,45.8,29.75,ESE,107,0.0,0.0,58,0.00,,SKC,0.00,VWS V14.01,2013-06-21 08:40:00,
2013-06-21 01:45:00,60.4,45.6,29.75,ESE,107,0.0,0.0,58,0.00,,SKC,0.00,VWS V14.01,2013-06-21 08:45:00,
2013-06-21 01:50:00,60.2,45.4,29.75,ESE,107,0.0,0.0,58,0.00,,SKC,0.00,VWS V14.01,2013-06-21 08:50:00,
2013-06-21 01:55:00,60.1,45.7,29.75,ESE,107,0.0,1.0,59,0.00,,SKC,0.00,VWS V14.01,2013-06-21 08:55:00,
2013-06-21 02:00:00,59.9,45.5,29.75,ESE,107,0.0,0.0,59,0.00,,SKC,0.00,VWS V14.01,2013-06-21 09:00:00,
2013-06-21 02:05:00,59.8,45.5,29.75,ESE,107,0.0,0.0,59,0.00,,SKC,0.00,VWS V14.01,2013-06-21 09:05:00,
2013-06-21 02:10:00,59.6,45.3,29.75,ESE,107,0.0,0.0,59,0.00,,SKC,0.00,VWS V14.01,2013-06-21 09:10:00,
2013-06-21 02:15:00,59.4,45.1,29.75,ESE,107,0.0,0.0,59,0.00,,SKC,0.00,VWS V14.01,2013-06-21 09:15:00,
2013-06-21 02:20:00,59.2,45.3,29.75,ESE,107,0.0,0.0,60,0.00,,SKC,0.00,VWS V14.01,2013-06-21 09:20:00,
2013-06-21 02:25:00,59.0,45.6,29.75,ESE,107,0.0,0.0,61,0.00,,SKC,0.00,VWS V14.01,2013-06-21 09:25:00,
2013-06-21 02:30:00,58.8,45.0,29.74,ESE,107,0.0,0.0,60,0.00,,SKC,0.00,VWS V14.01,2013-06-21 09:30:00,
2013-06-21 02:35:00,58.5,45.5,29.74,ESE,107,0.0,0.0,62,0.00,,SKC,0.00,VWS V14.01,2013-06-21 09:35:00,
2013-06-21 02:40:00,58.2,45.3,29.74,ESE,107,0.0,0.0,62,0.00,,SKC,0.00,VWS V14.01,2013-06-21 09:40:00,
2013-06-21 02:45:00,58.0,45.1,29.74,ESE,107,0.0,0.0,62,0.00,,SKC,0.00,VWS V14.01,2013-06-21 09:45:00,
2013-06-21 02:50:00,57.8,45.3,29.74,ESE,107,0.0,0.0,63,0.00,,SKC,0.00,VWS V14.01,2013-06-21 09:50:00,
2013-06-21 02:55:00,57.6,45.9,29.74,ESE,107,0.0,0.0,65,0.00,,SKC,0.00,VWS V14.01,2013-06-21 09:55:00,
2013-06-21 03:00:00,57.4,46.2,29.74,ESE,107,0.0,0.0,66,0.00,,SKC,0.00,VWS V14.01,2013-06-21 10:00:00,
2013-06-21 03:05:00,57.3,46.0,29.74,ESE,107,0.0,0.0,66,0.00,,SKC,0.00,VWS V14.01,2013-06-21 10:05:00,
2013-06-21 03:10:00,57.2,45.6,29.74,ESE,107,0.0,0.0,65,0.00,,SKC,0.00,VWS V14.01,2013-06-21 10:10:00,
2013-06-21 03:11:00,57.1,45.5,29.74,ESE,107,0.0,0.0,65,0.00,,SKC,0.00,VWS V14.01,2013-06-21 10:11:00,
2013-06-21 03:16:00,56.9,46.1,29.74,ESE,107,0.0,0.0,67,0.00,,SKC,0.00,VWS V14.01,2013-06-21 10:16:00,
2013-06-21 03:20:00,57.0,46.2,29.74,ESE,107,0.0,0.0,67,0.00,,SKC,0.00,VWS V14.01,2013-06-21 10:20:00,
2013-06-21 03:21:00,57.0,46.2,29.74,ESE,107,0.0,0.0,67,0.00,,SKC,0.00,VWS V14.01,2013-06-21 10:21:00,
2013-06-21 03:26:00,56.9,45.7,29.74,ESE,107,0.0,0.0,66,0.00,,SKC,0.00,VWS V14.01,2013-06-21 10:26:00,
2013-06-21 03:30:00,56.9,45.7,29.74,ESE,107,0.0,0.0,66,0.00,,SKC,0.00,VWS V14.01,2013-06-21 10:30:00,
2013-06-21 03:31:00,56.9,45.7,29.74,ESE,107,0.0,0.0,66,0.00,,SKC,0.00,VWS V14.01,2013-06-21 10:31:00,
2013-06-21 03:36:00,56.8,46.0,29.74,ESE,107,0.0,0.0,67,0.00,,SKC,0.00,VWS V14.01,2013-06-21 10:36:00,
2013-06-21 03:40:00,56.7,45.9,29.74,ESE,107,0.0,0.0,67,0.00,,SKC,0.00,VWS V14.01,2013-06-21 10:40:00,
2013-06-21 03:41:00,56.7,46.3,29.74,ESE,107,0.0,0.0,68,0.00,,SKC,0.00,VWS V14.01,2013-06-21 10:41:00,
2013-06-21 03:46:00,56.6,46.6,29.74,ESE,107,0.0,0.0,69,0.00,,SKC,0.00,VWS V14.01,2013-06-21 10:46:00,
2013-06-21 03:50:00,56.6,46.6,29.74,ESE,107,0.0,0.0,69,0.00,,SKC,0.00,VWS V14.01,2013-06-21 10:50:00,
2013-06-21 03:51:00,56.5,46.5,29.74,ESE,107,0.0,0.0,69,0.00,,SKC,0.00,VWS V14.01,2013-06-21 10:51:00,
2013-06-21 03:56:00,56.4,46.4,29.74,ESE,107,0.0,0.0,69,0.00,,SKC,0.00,VWS V14.01,2013-06-21 10:56:00,
2013-06-21 04:00:00,56.4,46.4,29.74,ESE,107,0.0,0.0,69,0.00,,SKC,0.00,VWS V14.01,2013-06-21 11:00:00,
2013-06-21 04:01:00,56.4,47.1,29.74,ESE,107,0.0,0.0,71,0.00,,SKC,0.00,VWS V14.01,2013-06-21 11:01:00,
2013-06-21 04:06:00,56.2,46.9,29.74,ESE,107,0.0,0.0,71,0.00,,SKC,0.00,VWS V14.01,2013-06-21 11:06:00,
2013-06-21 04:10:00,56.1,46.8,29.74,ESE,107,0.0,0.0,71,0.00,,SKC,0.00,VWS V14.01,2013-06-21 11:10:00,
2013-06-21 04:11:00,56.1,46.8,29.74,ESE,107,0.0,0.0,71,0.00,,SKC,0.00,VWS V14.01,2013-06-21 11:11:00,
2013-06-21 04:16:00,55.9,46.7,29.74,ESE,107,0.0,0.0,71,0.00,,SKC,0.00,VWS V14.01,2013-06-21 11:16:00,
2013-06-21 04:20:00,55.8,46.9,29.74,ESE,107,0.0,0.0,72,0.00,,SKC,0.00,VWS V14.01,2013-06-21 11:20:00,
2013-06-21 04:21:00,55.7,47.2,29.74,ESE,107,0.0,0.0,73,0.00,,SKC,0.00,VWS V14.01,2013-06-21 11:21:00,
2013-06-21 04:26:00,55.6,47.8,29.74,ESE,107,0.0,0.0,75,0.00,,SKC,0.00,VWS V14.01,2013-06-21 11:26:00,
2013-06-21 04:30:00,55.6,47.8,29.74,ESE,107,0.0,0.0,75,0.00,,SKC,0.00,VWS V14.01,2013-06-21 11:30:00,
2013-06-21 04:31:00,55.6,47.8,29.74,ESE,107,0.0,0.0,75,0.00,,SKC,0.00,VWS V14.01,2013-06-21 11:31:00,
2013-06-21 04:36:00,55.5,47.7,29.74,ESE,107,0.0,0.0,75,0.00,,SKC,0.00,VWS V14.01,2013-06-21 11:36:00,
2013-06-21 04:40:00,55.4,47.6,29.74,ESE,107,0.0,0.0,75,0.00,,SKC,0.00,VWS V14.01,2013-06-21 11:40:00,
2013-06-21 04:41:00,55.3,47.5,29.74,ESE,107,0.0,0.0,75,0.00,,SKC,0.00,VWS V14.01,2013-06-21 11:41:00,
2013-06-21 04:46:00,55.2,47.4,29.73,ESE,107,0.0,0.0,75,0.00,,SKC,0.00,VWS V14.01,2013-06-21 11:46:00,
2013-06-21 04:50:00,55.1,47.3,29.73,ESE,107,0.0,0.0,75,0.00,,SKC,0.00,VWS V14.01,2013-06-21 11:50:00,
2013-06-21 04:51:00,55.0,47.2,29.73,ESE,107,0.0,0.0,75,0.00,,SKC,0.00,VWS V14.01,2013-06-21 11:51:00,
2013-06-21 04:56:00,54.8,47.0,29.73,ESE,107,0.0,0.0,75,0.00,,SKC,0.00,VWS V14.01,2013-06-21 11:56:00,
2013-06-21 05:00:00,54.8,47.4,29.74,ESE,107,0.0,0.0,76,0.00,,SKC,0.00,VWS V14.01,2013-06-21 12:00:00,
2013-06-21 05:01:00,54.7,47.3,29.74,ESE,107,0.0,0.0,76,0.00,,SKC,0.00,VWS V14.01,2013-06-21 12:01:00,
2013-06-21 05:06:00,54.7,47.6,29.74,ESE,107,0.0,0.0,77,0.00,,SKC,0.00,VWS V14.01,2013-06-21 12:06:00,
2013-06-21 05:10:00,54.7,47.3,29.74,ESE,107,0.0,0.0,76,0.00,,SKC,0.00,VWS V14.01,2013-06-21 12:10:00,
2013-06-21 05:11:00,54.6,47.2,29.74,ESE,107,0.0,0.0,76,0.00,,SKC,0.00,VWS V14.01,2013-06-21 12:11:00,
2013-06-21 05:16:00,54.6,48.2,29.74,ESE,107,0.0,0.0,79,0.00,,SKC,0.00,VWS V14.01,2013-06-21 12:16:00,
2013-06-21 05:20:00,54.7,48.3,29.74,ESE,107,0.0,0.0,79,0.00,,SKC,0.00,VWS V14.01,2013-06-21 12:20:00,
2013-06-21 05:21:00,54.7,48.3,29.74,ESE,107,0.0,0.0,79,0.00,,SKC,0.00,VWS V14.01,2013-06-21 12:21:00,
2013-06-21 05:27:00,54.6,48.2,29.74,ESE,107,0.0,0.0,79,0.00,,SKC,0.00,VWS V14.01,2013-06-21 12:27:00,
2013-06-21 05:30:00,54.6,48.6,29.74,ESE,107,0.0,0.0,80,0.00,,SKC,0.00,VWS V14.01,2013-06-21 12:30:00,
2013-06-21 05:32:00,54.6,48.2,29.74,ESE,107,0.0,0.0,79,0.00,,SKC,0.00,VWS V14.01,2013-06-21 12:32:00,
2013-06-21 05:37:00,54.5,48.1,29.74,ESE,107,0.0,0.0,79,0.00,,SKC,0.00,VWS V14.01,2013-06-21 12:37:00,
2013-06-21 05:40:00,54.4,48.0,29.74,ESE,107,0.0,0.0,79,0.00,,SKC,0.00,VWS V14.01,2013-06-21 12:40:00,
2013-06-21 05:42:00,54.3,47.9,29.74,ESE,107,0.0,0.0,79,0.00,,SKC,0.00,VWS V14.01,2013-06-21 12:42:00,
2013-06-21 05:47:00,54.2,47.5,29.74,ESE,107,0.0,0.0,78,0.00,,SKC,0.00,VWS V14.01,2013-06-21 12:47:00,
2013-06-21 05:50:00,54.2,47.2,29.74,ESE,107,0.0,0.0,77,0.00,,SKC,0.00,VWS V14.01,2013-06-21 12:50:00,
2013-06-21 05:52:00,54.1,46.7,29.74,ESE,107,0.0,0.0,76,0.00,,SKC,0.00,VWS V14.01,2013-06-21 12:52:00,
2013-06-21 05:57:00,54.0,46.3,29.74,ESE,107,0.0,0.0,75,0.00,,SKC,0.00,VWS V14.01,2013-06-21 12:57:00,
2013-06-21 06:00:00,54.0,46.3,29.75,ESE,107,0.0,0.0,75,0.00,,SKC,0.00,VWS V14.01,2013-06-21 13:00:00,
2013-06-21 06:02:00,54.0,45.9,29.75,ESE,107,0.0,0.0,74,0.00,,SKC,0.00,VWS V14.01,2013-06-21 13:02:00,
2013-06-21 06:07:00,54.1,46.0,29.75,ESE,107,0.0,0.0,74,0.00,,SKC,0.00,VWS V14.01,2013-06-21 13:07:00,
2013-06-21 06:10:00,54.1,46.0,29.75,ESE,107,0.0,0.0,74,0.00,,SKC,0.00,VWS V14.01,2013-06-21 13:10:00,
2013-06-21 06:12:00,54.2,45.8,29.75,ESE,107,0.0,0.0,73,0.00,,SKC,0.00,VWS V14.01,2013-06-21 13:12:00,
2013-06-21 06:18:00,54.3,46.2,29.75,ESE,107,0.0,0.0,74,0.00,,SKC,0.00,VWS V14.01,2013-06-21 13:18:00,
2013-06-21 06:20:00,54.4,45.9,29.75,ESE,107,0.0,0.0,73,0.00,,SKC,0.00,VWS V14.01,2013-06-21 13:20:00,
2013-06-21 06:23:00,54.6,46.5,29.75,ESE,107,0.0,0.0,74,0.00,,SKC,0.00,VWS V14.01,2013-06-21 13:23:00,
2013-06-21 06:28:00,54.8,46.7,29.75,ESE,107,0.0,0.0,74,0.00,,SKC,0.00,VWS V14.01,2013-06-21 13:28:00,
2013-06-21 06:30:00,54.9,46.4,29.75,ESE,107,0.0,0.0,73,0.00,,SKC,0.00,VWS V14.01,2013-06-21 13:30:00,
2013-06-21 06:33:00,55.1,46.6,29.75,ESE,107,0.0,0.0,73,0.00,,SKC,0.00,VWS V14.01,2013-06-21 13:33:00,
2013-06-21 06:38:00,55.4,47.3,29.75,ESE,107,0.0,0.0,74,0.00,,SKC,0.00,VWS V14.01,2013-06-21 13:38:00,
2013-06-21 06:40:00,55.4,47.3,29.75,ESE,107,0.0,0.0,74,0.00,,SKC,0.00,VWS V14.01,2013-06-21 13:40:00,
2013-06-21 06:43:00,55.7,47.2,29.75,ESE,107,0.0,0.0,73,0.00,,SKC,0.00,VWS V14.01,2013-06-21 13:43:00,
2013-06-21 06:48:00,55.9,47.4,29.75,ESE,107,0.0,0.0,73,0.00,,SKC,0.00,VWS V14.01,2013-06-21 13:48:00,
2013-06-21 06:50:00,56.0,47.5,29.75,ESE,107,0.0,0.0,73,0.00,,SKC,0.00,VWS V14.01,2013-06-21 13:50:00,
2013-06-21 06:53:00,56.2,47.7,29.75,ESE,107,0.0,0.0,73,0.00,,SKC,0.00,VWS V14.01,2013-06-21 13:53:00,
2013-06-21 06:58:00,56.5,47.6,29.75,ESE,107,0.0,0.0,72,0.00,,SKC,0.00,VWS V14.01,2013-06-21 13:58:00,
2013-06-21 07:00:00,56.6,47.7,29.75,ESE,107,0.0,0.0,72,0.00,,SKC,0.00,VWS V14.01,2013-06-21 14:00:00,
2013-06-21 07:03:00,56.9,47.6,29.75,ESE,107,0.0,0.0,71,0.00,,SKC,0.00,VWS V14.01,2013-06-21 14:03:00,
2013-06-21 07:08:00,57.4,47.7,29.75,ESE,107,0.0,1.0,70,0.00,,SKC,0.00,VWS V14.01,2013-06-21 14:08:00,
2013-06-21 07:10:00,57.5,47.8,29.75,ESE,107,0.0,1.0,70,0.00,,SKC,0.00,VWS V14.01,2013-06-21 14:10:00,
2013-06-21 07:13:00,58.0,47.9,29.75,ESE,107,0.0,1.0,69,0.00,,SKC,0.00,VWS V14.01,2013-06-21 14:13:00,
2013-06-21 07:18:00,58.7,48.6,29.75,ESE,107,0.0,1.0,69,0.00,,SKC,0.00,VWS V14.01,2013-06-21 14:18:00,
2013-06-21 07:20:00,58.7,48.6,29.75,ESE,107,0.0,1.0,69,0.00,,SKC,0.00,VWS V14.01,2013-06-21 14:20:00,
2013-06-21 07:23:00,59.3,48.8,29.75,ESE,107,0.0,1.0,68,0.00,,SKC,0.00,VWS V14.01,2013-06-21 14:23:00,
2013-06-21 07:28:00,59.8,48.4,29.75,ESE,107,0.0,1.0,66,0.00,,SKC,0.00,VWS V14.01,2013-06-21 14:28:00,
2013-06-21 07:30:00,59.8,48.4,29.75,ESE,107,0.0,1.0,66,0.00,,SKC,0.00,VWS V14.01,2013-06-21 14:30:00,
2013-06-21 07:34:00,60.6,48.4,29.75,ESE,107,0.0,0.0,64,0.00,,SKC,0.00,VWS V14.01,2013-06-21 14:34:00,
2013-06-21 07:39:00,61.9,48.3,29.75,ESE,107,0.0,1.0,61,0.00,,SKC,0.00,VWS V14.01,2013-06-21 14:39:00,
2013-06-21 07:40:00,61.9,48.3,29.75,ESE,107,0.0,1.0,61,0.00,,SKC,0.00,VWS V14.01,2013-06-21 14:40:00,
2013-06-21 07:44:00,63.5,49.4,29.75,ESE,107,0.0,0.0,60,0.00,,SKC,0.00,VWS V14.01,2013-06-21 14:44:00,
2013-06-21 07:49:00,65.0,49.4,29.75,ESE,107,0.0,0.0,57,0.00,,SKC,0.00,VWS V14.01,2013-06-21 14:49:00,
2013-06-21 07:50:00,64.9,49.3,29.75,ESE,107,0.0,1.0,57,0.00,,SKC,0.00,VWS V14.01,2013-06-21 14:50:00,
2013-06-21 07:54:00,66.2,49.6,29.75,ESE,107,0.0,0.0,55,0.00,,SKC,0.00,VWS V14.01,2013-06-21 14:54:00,
2013-06-21 07:59:00,67.3,49.6,29.75,ESE,108,0.0,1.0,53,0.00,,SKC,0.00,VWS V14.01,2013-06-21 14:59:00,
2013-06-21 08:00:00,67.2,49.5,29.75,ESE,108,0.0,2.0,53,0.00,,SKC,0.00,VWS V14.01,2013-06-21 15:00:00,
2013-06-21 08:04:00,68.2,49.4,29.75,ESE,108,0.0,1.0,51,0.00,,SKC,0.00,VWS V14.01,2013-06-21 15:04:00,
2013-06-21 08:09:00,69.1,50.2,29.75,ESE,108,0.0,1.0,51,0.00,,SKC,0.00,VWS V14.01,2013-06-21 15:09:00,
2013-06-21 08:10:00,69.0,50.1,29.75,ESE,108,0.0,1.0,51,0.00,,SKC,0.00,VWS V14.01,2013-06-21 15:10:00,
2013-06-21 08:14:00,69.7,49.7,29.76,NW,324,0.0,3.0,49,0.00,,SKC,0.00,VWS V14.01,2013-06-21 15:14:00,
2013-06-21 08:19:00,69.8,48.7,29.76,WNW,296,2.0,6.0,47,0.00,,SKC,0.00,VWS V14.01,2013-06-21 15:19:00,
2013-06-21 08:20:00,69.8,49.2,29.76,WNW,298,4.0,4.0,48,0.00,,SKC,0.00,VWS V14.01,2013-06-21 15:20:00,
2013-06-21 08:24:00,70.1,49.5,29.76,WNW,295,0.0,6.0,48,0.00,,SKC,0.00,VWS V14.01,2013-06-21 15:24:00,
2013-06-21 08:29:00,70.6,50.0,29.76,WNW,295,0.0,0.0,48,0.00,,SKC,0.00,VWS V14.01,2013-06-21 15:29:00,
2013-06-21 08:30:00,70.5,49.9,29.76,WNW,295,0.0,6.0,48,0.00,,SKC,0.00,VWS V14.01,2013-06-21 15:30:00,
2013-06-21 08:34:00,71.3,50.0,29.76,WNW,295,0.0,1.0,47,0.00,,SKC,0.00,VWS V14.01,2013-06-21 15:34:00,
2013-06-21 08:39:00,72.1,48.4,29.76,West,275,2.0,2.0,43,0.00,,SKC,0.00,VWS V14.01,2013-06-21 15:39:00,
2013-06-21 08:40:00,71.9,48.2,29.76,West,276,1.0,5.0,43,0.00,,SKC,0.00,VWS V14.01,2013-06-21 15:40:00,
2013-06-21 08:44:00,72.6,48.8,29.76,West,273,2.0,5.0,43,0.00,,SKC,0.00,VWS V14.01,2013-06-21 15:44:00,
2013-06-21 08:49:00,73.4,48.9,29.76,West,273,2.0,4.0,42,0.00,,SKC,0.00,VWS V14.01,2013-06-21 15:49:00,
2013-06-21 08:50:00,73.2,48.8,29.76,West,265,1.0,5.0,42,0.00,,SCT100,0.00,VWS V14.01,2013-06-21 15:50:00,
2013-06-21 08:54:00,74.0,48.8,29.76,West,269,0.0,5.0,41,0.00,,SKC,0.00,VWS V14.01,2013-06-21 15:54:00,
2013-06-21 09:00:00,74.4,49.8,29.76,West,277,2.0,2.0,42,0.00,,SKC,0.00,VWS V14.01,2013-06-21 16:00:00,
2013-06-21 09:05:00,75.0,49.7,29.76,West,260,0.0,6.0,41,0.00,,SKC,0.00,VWS V14.01,2013-06-21 16:05:00,
2013-06-21 09:10:00,75.6,50.3,29.76,WSW,248,1.0,2.0,41,0.00,,SKC,0.00,VWS V14.01,2013-06-21 16:10:00,
2013-06-21 09:15:00,76.1,50.0,29.76,West,275,2.0,6.0,40,0.00,,SKC,0.00,VWS V14.01,2013-06-21 16:15:00,
2013-06-21 09:20:00,76.6,49.8,29.76,WNW,303,4.0,6.0,39,0.00,,SKC,0.00,VWS V14.01,2013-06-21 16:20:00,
2013-06-21 09:25:00,76.6,50.5,29.76,West,259,0.0,7.0,40,0.00,,SKC,0.00,VWS V14.01,2013-06-21 16:25:00,
2013-06-21 09:30:00,76.7,50.6,29.76,WNW,291,0.0,6.0,40,0.00,,SKC,0.00,VWS V14.01,2013-06-21 16:30:00,
2013-06-21 09:35:00,76.9,50.1,29.76,NW,314,4.0,6.0,39,0.00,,SKC,0.00,VWS V14.01,2013-06-21 16:35:00,
2013-06-21 09:40:00,76.8,50.7,29.76,West,275,2.0,4.0,40,0.00,,SKC,0.00,VWS V14.01,2013-06-21 16:40:00,
2013-06-21 09:45:00,76.9,50.1,29.76,WNW,282,4.0,8.0,39,0.00,,SKC,0.00,VWS V14.01,2013-06-21 16:45:00,
2013-06-21 09:50:00,77.0,50.2,29.76,West,260,1.0,6.0,39,0.00,,SKC,0.00,VWS V14.01,2013-06-21 16:50:00,
2013-06-21 09:55:00,77.6,50.7,29.76,WNW,300,2.0,9.0,39,0.00,,SKC,0.00,VWS V14.01,2013-06-21 16:55:00,
2013-06-21 10:00:00,77.9,49.6,29.76,NW,314,5.0,9.0,37,0.00,,SKC,0.00,VWS V14.01,2013-06-21 17:00:00,
2013-06-21 10:01:00,77.9,50.3,29.76,NW,326,0.0,5.0,38,0.00,,SKC,0.00,VWS V14.01,2013-06-21 17:01:00,
2013-06-21 10:06:00,77.9,49.6,29.76,West,281,5.0,8.0,37,0.00,,SKC,0.00,VWS V14.01,2013-06-21 17:06:00,
2013-06-21 10:10:00,78.1,50.5,29.76,WNW,286,4.0,8.0,38,0.00,,SKC,0.00,VWS V14.01,2013-06-21 17:10:00,
2013-06-21 10:11:00,78.3,49.9,29.76,West,279,2.0,7.0,37,0.00,,SKC,0.00,VWS V14.01,2013-06-21 17:11:00,
2013-06-21 10:17:00,78.5,50.1,29.76,WNW,289,6.0,9.0,37,0.00,,SKC,0.00,VWS V14.01,2013-06-21 17:17:00,
2013-06-21 10:20:00,78.4,50.0,29.76,WNW,298,2.0,9.0,37,0.00,,SKC,0.00,VWS V14.01,2013-06-21 17:20:00,
2013-06-21 10:22:00,78.3,49.9,29.76,West,274,1.0,8.0,37,0.00,,SKC,0.00,VWS V14.01,2013-06-21 17:22:00,
2013-06-21 10:27:00,78.7,50.3,29.76,WNW,297,5.0,8.0,37,0.00,,SKC,0.00,VWS V14.01,2013-06-21 17:27:00,
2013-06-21 10:30:00,79.0,49.8,29.76,NW,312,0.0,9.0,36,0.00,,SKC,0.00,VWS V14.01,2013-06-21 17:30:00,
2013-06-21 10:32:00,79.3,50.1,29.76,West,280,2.0,8.0,36,0.00,,SKC,0.00,VWS V14.01,2013-06-21 17:32:00,
2013-06-21 10:37:00,79.9,50.6,29.76,WSW,257,4.0,8.0,36,0.00,,SKC,0.00,VWS V14.01,2013-06-21 17:37:00,
2013-06-21 10:40:00,80.1,50.0,29.76,WNW,291,2.0,9.0,35,0.00,,SKC,0.00,VWS V14.01,2013-06-21 17:40:00,
2013-06-21 10:42:00,80.4,49.5,29.76,WNW,298,1.0,7.0,34,0.00,,SKC,0.00,VWS V14.01,2013-06-21 17:42:00,
2013-06-21 10:46:00,80.6,50.5,29.76,WNW,298,6.0,9.0,35,0.00,,SKC,0.00,VWS V14.01,2013-06-21 17:46:00,
2013-06-21 10:47:00,80.7,50.5,29.76,WNW,287,1.0,9.0,35,0.00,,SKC,0.00,VWS V14.01,2013-06-21 17:47:00,
2013-06-21 10:50:00,80.8,49.8,29.76,NW,319,1.0,9.0,34,0.00,,SKC,0.00,VWS V14.01,2013-06-21 17:50:00,
2013-06-21 10:52:00,81.3,51.1,29.76,WNW,295,4.0,5.0,35,0.00,,SKC,0.00,VWS V14.01,2013-06-21 17:52:00,
2013-06-21 10:58:00,81.8,50.7,29.76,WNW,291,0.0,8.0,34,0.00,,SKC,0.00,VWS V14.01,2013-06-21 17:58:00,
2013-06-21 11:00:00,81.9,51.6,29.76,WSW,239,1.0,8.0,35,0.00,,SKC,0.00,VWS V14.01,2013-06-21 18:00:00,
2013-06-21 11:03:00,82.3,51.2,29.76,NW,306,4.0,8.0,34,0.00,,SKC,0.00,VWS V14.01,2013-06-21 18:03:00,
2013-06-21 11:08:00,83.0,51.0,29.76,WNW,285,4.0,8.0,33,0.00,,SKC,0.00,VWS V14.01,2013-06-21 18:08:00,
2013-06-21 11:10:00,83.0,51.0,29.76,West,276,2.0,8.0,33,0.00,,SKC,0.00,VWS V14.01,2013-06-21 18:10:00,
2013-06-21 11:14:00,83.4,50.5,29.76,WNW,284,2.0,9.0,32,0.00,,SKC,0.00,VWS V14.01,2013-06-21 18:14:00,
2013-06-21 11:19:00,83.4,51.3,29.76,WNW,289,0.0,2.0,33,0.00,,SKC,0.00,VWS V14.01,2013-06-21 18:19:00,
2013-06-21 11:20:00,83.4,51.3,29.76,WNW,291,1.0,9.0,33,0.00,,SKC,0.00,VWS V14.01,2013-06-21 18:20:00,
2013-06-21 11:23:00,83.6,49.8,29.76,West,281,0.0,13.0,31,0.00,,SKC,0.00,VWS V14.01,2013-06-21 18:23:00,
2013-06-21 11:24:00,83.7,50.7,29.76,West,281,0.0,13.0,32,0.00,,SKC,0.00,VWS V14.01,2013-06-21 18:24:00,
2013-06-21 11:29:00,83.8,50.8,29.76,WSW,247,0.0,9.0,32,0.00,,SKC,0.00,VWS V14.01,2013-06-21 18:29:00,
2013-06-21 11:30:00,83.8,50.0,29.76,West,260,9.0,13.0,31,0.00,,SKC,0.00,VWS V14.01,2013-06-21 18:30:00,
2013-06-21 11:34:00,84.0,50.2,29.76,WNW,295,4.0,9.0,31,0.00,,SKC,0.00,VWS V14.01,2013-06-21 18:34:00,
2013-06-21 11:39:00,84.1,51.1,29.76,WNW,284,0.0,2.0,32,0.00,,SKC,0.00,VWS V14.01,2013-06-21 18:39:00,
2013-06-21 11:40:00,84.0,51.0,29.76,WSW,254,2.0,9.0,32,0.00,,SKC,0.00,VWS V14.01,2013-06-21 18:40:00,
2013-06-21 11:44:00,84.6,49.8,29.76,West,262,0.0,5.0,30,0.00,,SKC,0.00,VWS V14.01,2013-06-21 18:44:00,
2013-06-21 11:45:00,84.7,50.8,29.76,West,264,1.0,5.0,31,0.00,,SKC,0.00,VWS V14.01,2013-06-21 18:45:00,
2013-06-21 11:46:00,84.8,50.0,29.76,WNW,287,6.0,6.0,30,0.00,,SKC,0.00,VWS V14.01,2013-06-21 18:46:00,
2013-06-21 11:47:00,84.8,50.0,29.76,WNW,292,6.0,6.0,30,0.00,,SKC,0.00,VWS V14.01,2013-06-21 18:47:00,
2013-06-21 11:49:00,85.0,50.1,29.76,West,268,0.0,1.0,30,0.00,,SKC,0.00,VWS V14.01,2013-06-21 18:49:00,
2013-06-21 11:50:00,85.0,50.1,29.76,West,268,1.0,7.0,30,0.00,,SKC,0.00,VWS V14.01,2013-06-21 18:50:00,
2013-06-21 11:54:00,85.7,49.8,29.76,West,262,0.0,6.0,29,0.00,,SKC,0.00,VWS V14.01,2013-06-21 18:54:00,
2013-06-21 11:59:00,86.0,50.1,29.76,NNW,331,0.0,4.0,29,0.00,,SKC,0.00,VWS V14.01,2013-06-21 18:59:00,
2013-06-21 12:00:00,86.0,50.1,29.76,NW,313,4.0,7.0,29,0.00,,SKC,0.00,VWS V14.01,2013-06-21 19:00:00,
2013-06-21 12:04:00,86.1,50.2,29.76,West,271,1.0,6.0,29,0.00,,SKC,0.00,VWS V14.01,2013-06-21 19:04:00,
2013-06-21 12:09:00,86.2,50.2,29.76,WNW,283,0.0,2.0,29,0.00,,SKC,0.00,VWS V14.01,2013-06-21 19:09:00,
2013-06-21 12:10:00,86.2,49.3,29.76,WNW,283,2.0,8.0,28,0.00,,SKC,0.00,VWS V14.01,2013-06-21 19:10:00,
2013-06-21 12:14:00,86.3,50.3,29.75,NNW,335,4.0,8.0,29,0.00,,SKC,0.00,VWS V14.01,2013-06-21 19:14:00,
2013-06-21 12:19:00,86.1,49.2,29.75,NW,312,6.0,7.0,28,0.00,,SKC,0.00,VWS V14.01,2013-06-21 19:19:00,
2013-06-21 12:20:00,86.2,49.3,29.75,NW,308,5.0,10.0,28,0.00,,SKC,0.00,VWS V14.01,2013-06-21 19:20:00,
2013-06-21 12:21:00,86.1,48.2,29.75,NW,321,4.0,10.0,27,0.00,,SKC,0.00,VWS V14.01,2013-06-21 19:21:00,
2013-06-21 12:26:00,86.2,49.3,29.75,West,277,1.0,10.0,28,0.00,,SKC,0.00,VWS V14.01,2013-06-21 19:26:00,
2013-06-21 12:30:00,86.3,48.4,29.75,NW,311,0.0,10.0,27,0.00,,SKC,0.00,VWS V14.01,2013-06-21 19:30:00,
2013-06-21 12:31:00,86.5,48.6,29.75,West,280,1.0,7.0,27,0.00,,SKC,0.00,VWS V14.01,2013-06-21 19:31:00,
2013-06-21 12:36:00,86.8,48.8,29.75,SSE,162,4.0,11.0,27,0.00,,SKC,0.00,VWS V14.01,2013-06-21 19:36:00,
2013-06-21 12:40:00,86.9,48.9,29.75,WSW,246,2.0,11.0,27,0.00,,SKC,0.00,VWS V14.01,2013-06-21 19:40:00,
2013-06-21 12:41:00,87.3,49.3,29.75,WSW,248,1.0,8.0,27,0.00,,SKC,0.00,VWS V14.01,2013-06-21 19:41:00,
2013-06-21 12:42:00,87.5,51.4,29.75,West,280,2.0,8.0,29,0.00,,SKC,0.00,VWS V14.01,2013-06-21 19:42:00,
2013-06-21 12:48:00,88.1,50.9,29.75,WSW,250,4.0,9.0,28,0.00,,SKC,0.00,VWS V14.01,2013-06-21 19:48:00,
2013-06-21 12:50:00,88.1,50.0,29.75,WSW,254,2.0,9.0,27,0.00,,SKC,0.00,VWS V14.01,2013-06-21 19:50:00,
2013-06-21 12:53:00,88.3,51.1,29.75,West,261,4.0,7.0,28,0.00,,SKC,0.00,VWS V14.01,2013-06-21 19:53:00,
2013-06-21 12:58:00,88.9,48.6,29.75,NW,308,2.0,9.0,25,0.00,,SKC,0.00,VWS V14.01,2013-06-21 19:58:00,
2013-06-21 13:00:00,88.9,48.6,29.75,SW,233,3.0,9.0,25,0.00,,SKC,0.00,VWS V14.01,2013-06-21 20:00:00,
2013-06-21 13:03:00,89.3,48.9,29.75,WNW,300,6.0,7.0,25,0.00,,SKC,0.00,VWS V14.01,2013-06-21 20:03:00,
2013-06-21 13:08:00,89.7,50.3,29.75,WNW,302,0.0,7.0,26,0.00,,SKC,0.00,VWS V14.01,2013-06-21 20:08:00,
2013-06-21 13:10:00,89.9,50.5,29.75,NW,310,1.0,5.0,26,0.00,,SKC,0.00,VWS V14.01,2013-06-21 20:10:00,
2013-06-21 13:13:00,90.2,48.6,29.75,West,273,0.0,6.0,24,0.00,,SKC,0.00,VWS V14.01,2013-06-21 20:13:00,
2013-06-21 13:18:00,90.0,48.4,29.75,West,279,1.0,8.0,24,0.00,,SKC,0.00,VWS V14.01,2013-06-21 20:18:00,
2013-06-21 13:20:00,90.0,48.4,29.75,West,279,1.0,8.0,24,0.00,,SCT100,0.00,VWS V14.01,2013-06-21 20:20:00,
2013-06-21 13:23:00,89.7,49.2,29.75,WNW,287,0.0,6.0,25,0.00,,SKC,0.00,VWS V14.01,2013-06-21 20:23:00,
2013-06-21 13:28:00,90.0,50.5,29.75,SW,231,2.0,7.0,26,0.00,,SKC,0.00,VWS V14.01,2013-06-21 20:28:00,
2013-06-21 13:30:00,90.0,50.5,29.75,SW,231,2.0,7.0,26,0.00,,SKC,0.00,VWS V14.01,2013-06-21 20:30:00,
2013-06-21 13:34:00,90.1,50.6,29.75,WSW,258,2.0,7.0,26,0.00,,SKC,0.00,VWS V14.01,2013-06-21 20:34:00,
2013-06-21 13:39:00,90.5,49.9,29.75,NW,306,1.0,5.0,25,0.00,,SKC,0.00,VWS V14.01,2013-06-21 20:39:00,
2013-06-21 13:40:00,90.5,51.0,29.75,NW,306,2.0,7.0,26,0.00,,SCT100,0.00,VWS V14.01,2013-06-21 20:40:00,
2013-06-21 13:44:00,91.0,49.2,29.75,NW,304,4.0,7.0,24,0.00,,SKC,0.00,VWS V14.01,2013-06-21 20:44:00,
2013-06-21 13:50:00,90.9,49.2,29.75,WNW,283,5.0,5.0,24,0.00,,SKC,0.00,VWS V14.01,2013-06-21 20:50:00,
2013-06-21 13:55:00,91.0,49.2,29.75,WSW,254,0.0,5.0,24,0.00,,SKC,0.00,VWS V14.01,2013-06-21 20:55:00,
2013-06-21 14:00:00,91.4,49.6,29.74,SSW,212,0.0,5.0,24,0.00,,SKC,0.00,VWS V14.01,2013-06-21 21:00:00,
2013-06-21 14:04:00,91.8,51.0,29.74,WSW,240,5.0,6.0,25,0.00,,SKC,0.00,VWS V14.01,2013-06-21 21:04:00,
2013-06-21 14:09:00,92.2,49.1,29.74,SW,227,0.0,1.0,23,0.00,,SKC,0.00,VWS V14.01,2013-06-21 21:09:00,
2013-06-21 14:10:00,92.2,49.1,29.74,SW,227,1.0,6.0,23,0.00,,SKC,0.00,VWS V14.01,2013-06-21 21:10:00,
2013-06-21 14:14:00,91.8,49.9,29.74,WNW,295,4.0,5.0,24,0.00,,SKC,0.00,VWS V14.01,2013-06-21 21:14:00,
2013-06-21 14:19:00,91.6,49.7,29.74,WSW,240,0.0,2.0,24,0.00,,SKC,0.00,VWS V14.01,2013-06-21 21:19:00,
2013-06-21 14:20:00,91.6,49.7,29.74,SSW,197,0.0,6.0,24,0.00,,SKC,0.00,VWS V14.01,2013-06-21 21:20:00,
2013-06-21 14:24:00,91.5,49.7,29.74,SSE,158,3.0,5.0,24,0.00,,SKC,0.00,VWS V14.01,2013-06-21 21:24:00,
2013-06-21 14:29:00,91.7,50.9,29.73,WSW,254,2.0,7.0,25,0.00,,SKC,0.00,VWS V14.01,2013-06-21 21:29:00,
2013-06-21 14:30:00,91.6,50.8,29.73,SW,227,4.0,5.0,25,0.00,,SKC,0.00,VWS V14.01,2013-06-21 21:30:00,
2013-06-21 14:34:00,91.9,51.1,29.73,West,281,0.0,7.0,25,0.00,,SKC,0.00,VWS V14.01,2013-06-21 21:34:00,
2013-06-21 14:39:00,92.2,51.3,29.73,SE,134,6.0,6.0,25,0.00,,SKC,0.00,VWS V14.01,2013-06-21 21:39:00,
2013-06-21 14:40:00,92.2,51.3,29.73,SSE,160,2.0,7.0,25,0.00,,SKC,0.00,VWS V14.01,2013-06-21 21:40:00,
2013-06-21 14:45:00,91.5,49.7,29.73,West,262,0.0,8.0,24,0.00,,SKC,0.00,VWS V14.01,2013-06-21 21:45:00,
2013-06-21 14:50:00,91.3,49.5,29.73,NW,314,8.0,10.0,24,0.00,,SKC,0.00,VWS V14.01,2013-06-21 21:50:00,
2013-06-21 14:55:00,90.9,50.2,29.73,WSW,250,0.0,12.0,25,0.00,,SKC,0.00,VWS V14.01,2013-06-21 21:55:00,
2013-06-21 15:00:00,90.9,50.2,29.73,ESE,114,0.0,3.0,25,0.00,,SKC,0.00,VWS V14.01,2013-06-21 22:00:00,
2013-06-21 15:05:00,90.4,48.7,29.73,WNW,283,5.0,10.0,24,0.00,,SKC,0.00,VWS V14.01,2013-06-21 22:05:00,
2013-06-21 15:10:00,90.6,50.0,29.73,WNW,301,1.0,6.0,25,0.00,,SKC,0.00,VWS V14.01,2013-06-21 22:10:00,
2013-06-21 15:15:00,90.8,50.2,29.73,WNW,288,6.0,8.0,25,0.00,,SKC,0.00,VWS V14.01,2013-06-21 22:15:00,
2013-06-21 15:20:00,90.6,48.9,29.73,SSW,206,1.0,8.0,24,0.00,,SKC,0.00,VWS V14.01,2013-06-21 22:20:00,
2013-06-21 15:21:00,90.7,50.1,29.73,WSW,250,4.0,8.0,25,0.00,,SKC,0.00,VWS V14.01,2013-06-21 22:21:00,
2013-06-21 15:26:00,91.0,49.2,29.73,West,262,1.0,11.0,24,0.00,,SKC,0.00,VWS V14.01,2013-06-21 22:26:00,
2013-06-21 15:30:00,91.1,49.3,29.73,WSW,253,1.0,11.0,24,0.00,,SKC,0.00,VWS V14.01,2013-06-21 22:30:00,
2013-06-21 15:31:00,91.1,49.3,29.73,SSW,200,3.0,6.0,24,0.00,,SKC,0.00,VWS V14.01,2013-06-21 22:31:00,
2013-06-21 15:36:00,91.5,48.5,29.73,West,269,1.0,9.0,23,0.00,,SKC,0.00,VWS V14.01,2013-06-21 22:36:00,
2013-06-21 15:40:00,91.6,49.7,29.73,SW,233,4.0,9.0,24,0.00,,SKC,0.00,VWS V14.01,2013-06-21 22:40:00,
2013-06-21 15:41:00,91.7,48.7,29.73,WNW,302,2.0,6.0,23,0.00,,SKC,0.00,VWS V14.01,2013-06-21 22:41:00,
2013-06-21 15:46:00,91.6,49.7,29.73,NW,312,1.0,6.0,24,0.00,,SKC,0.00,VWS V14.01,2013-06-21 22:46:00,
2013-06-21 15:50:00,91.5,48.5,29.73,SSW,193,1.0,6.0,23,0.00,,SKC,0.00,VWS V14.01,2013-06-21 22:50:00,
2013-06-21 15:51:00,91.6,48.6,29.73,SSW,204,2.0,4.0,23,0.00,,SKC,0.00,VWS V14.01,2013-06-21 22:51:00,
2013-06-21 15:56:00,91.7,48.7,29.73,WNW,287,4.0,7.0,23,0.00,,SKC,0.00,VWS V14.01,2013-06-21 22:56:00,
2013-06-21 16:00:00,91.7,48.7,29.72,WNW,290,5.0,7.0,23,0.00,,SKC,0.00,VWS V14.01,2013-06-21 23:00:00,
2013-06-21 16:01:00,91.6,47.4,29.72,West,260,5.0,7.0,22,0.00,,SKC,0.00,VWS V14.01,2013-06-21 23:01:00,
2013-06-21 16:06:00,91.7,48.7,29.72,SW,228,0.0,7.0,23,0.00,,SKC,0.00,VWS V14.01,2013-06-21 23:06:00,
2013-06-21 16:10:00,91.7,49.8,29.72,West,265,4.0,7.0,24,0.00,,SKC,0.00,VWS V14.01,2013-06-21 23:10:00,
2013-06-21 16:11:00,91.7,49.8,29.72,NW,315,4.0,7.0,24,0.00,,SKC,0.00,VWS V14.01,2013-06-21 23:11:00,
2013-06-21 16:16:00,91.1,49.3,29.71,WSW,244,1.0,7.0,24,0.00,,SKC,0.00,VWS V14.01,2013-06-21 23:16:00,
2013-06-21 16:20:00,91.1,48.2,29.71,NW,304,8.0,9.0,23,0.00,,SKC,0.00,VWS V14.01,2013-06-21 23:20:00,
2013-06-21 16:21:00,91.1,48.2,29.71,WSW,244,1.0,8.0,23,0.00,,SKC,0.00,VWS V14.01,2013-06-21 23:21:00,
2013-06-21 16:26:00,91.3,48.3,29.71,SW,229,2.0,8.0,23,0.00,,SKC,0.00,VWS V14.01,2013-06-21 23:26:00,
2013-06-21 16:30:00,91.2,48.3,29.71,West,260,2.0,8.0,23,0.00,,SKC,0.00,VWS V14.01,2013-06-21 23:30:00,
2013-06-21 16:31:00,91.0,49.2,29.71,SSW,207,4.0,7.0,24,0.00,,SKC,0.00,VWS V14.01,2013-06-21 23:31:00,
2013-06-21 16:36:00,90.8,47.9,29.71,SSW,208,1.0,8.0,23,0.00,,SKC,0.00,VWS V14.01,2013-06-21 23:36:00,
2013-06-21 16:40:00,90.8,47.9,29.71,West,266,1.0,8.0,23,0.00,,SKC,0.00,VWS V14.01,2013-06-21 23:40:00,
2013-06-21 16:41:00,90.6,47.8,29.71,West,277,1.0,6.0,23,0.00,,SKC,0.00,VWS V14.01,2013-06-21 23:41:00,
2013-06-21 16:46:00,90.7,49.0,29.71,SSW,195,1.0,6.0,24,0.00,,SKC,0.00,VWS V14.01,2013-06-21 23:46:00,
2013-06-21 16:50:00,90.8,49.1,29.71,West,270,8.0,8.0,24,0.00,,SKC,0.00,VWS V14.01,2013-06-21 23:50:00,
2013-06-21 16:52:00,90.8,47.9,29.71,NNW,343,0.0,8.0,23,0.00,,SKC,0.00,VWS V14.01,2013-06-21 23:52:00,
2013-06-21 16:57:00,90.3,47.5,29.71,West,273,6.0,10.0,23,0.00,,SKC,0.00,VWS V14.01,2013-06-21 23:57:00,
2013-06-21 17:00:00,90.1,47.3,29.71,WNW,288,2.0,10.0,23,0.00,,SKC,0.00,VWS V14.01,2013-06-22 00:00:00,
2013-06-21 17:02:00,90.2,47.4,29.71,WSW,254,4.0,7.0,23,0.00,,SKC,0.00,VWS V14.01,2013-06-22 00:02:00,
2013-06-21 17:07:00,90.2,46.2,29.71,NW,312,5.0,8.0,22,0.00,,SKC,0.00,VWS V14.01,2013-06-22 00:07:00,
2013-06-21 17:10:00,90.1,46.2,29.71,WNW,286,2.0,8.0,22,0.00,,SKC,0.00,VWS V14.01,2013-06-22 00:10:00,
2013-06-21 17:12:00,89.9,46.0,29.71,NE,39,0.0,3.0,22,0.00,,SKC,0.00,VWS V14.01,2013-06-22 00:12:00,
2013-06-21 17:17:00,89.8,45.9,29.70,North,350,0.0,3.0,22,0.00,,SKC,0.00,VWS V14.01,2013-06-22 00:17:00,
2013-06-21 17:20:00,89.9,47.2,29.70,West,278,6.0,6.0,23,0.00,,SKC,0.00,VWS V14.01,2013-06-22 00:20:00,
2013-06-21 17:22:00,89.8,47.1,29.70,NW,315,0.0,7.0,23,0.00,,SKC,0.00,VWS V14.01,2013-06-22 00:22:00,
2013-06-21 17:27:00,89.8,47.1,29.70,West,277,4.0,8.0,23,0.00,,SKC,0.00,VWS V14.01,2013-06-22 00:27:00,
2013-06-21 17:30:00,89.8,47.1,29.70,West,269,0.0,8.0,23,0.00,,SKC,0.00,VWS V14.01,2013-06-22 00:30:00,
2013-06-21 17:32:00,90.0,47.3,29.70,WNW,300,1.0,7.0,23,0.00,,SKC,0.00,VWS V14.01,2013-06-22 00:32:00,
2013-06-21 17:37:00,90.4,47.6,29.70,WSW,237,0.0,7.0,23,0.00,,SKC,0.00,VWS V14.01,2013-06-22 00:37:00,
2013-06-21 17:40:00,90.4,47.6,29.70,SSW,196,1.0,7.0,23,0.00,,SKC,0.00,VWS V14.01,2013-06-22 00:40:00,
2013-06-21 17:42:00,90.4,46.4,29.70,WNW,292,0.0,4.0,22,0.00,,SKC,0.00,VWS V14.01,2013-06-22 00:42:00,
2013-06-21 17:47:00,90.4,46.4,29.69,WNW,299,1.0,6.0,22,0.00,,SKC,0.00,VWS V14.01,2013-06-22 00:47:00,
2013-06-21 17:50:00,90.4,46.4,29.69,WNW,294,0.0,6.0,22,0.00,,SKC,0.00,VWS V14.01,2013-06-22 00:50:00,
2013-06-21 17:52:00,90.2,46.2,29.69,WNW,294,4.0,7.0,22,0.00,,SKC,0.00,VWS V14.01,2013-06-22 00:52:00,
2013-06-21 17:57:00,89.9,46.0,29.69,WNW,292,0.0,7.0,22,0.00,,SKC,0.00,VWS V14.01,2013-06-22 00:57:00,
2013-06-21 18:00:00,89.9,47.2,29.69,West,259,2.0,7.0,23,0.00,,SKC,0.00,VWS V14.01,2013-06-22 01:00:00,
2013-06-21 18:02:00,90.0,47.3,29.69,WNW,287,2.0,9.0,23,0.00,,SKC,0.00,VWS V14.01,2013-06-22 01:02:00,
2013-06-21 18:07:00,89.6,44.5,29.69,NW,307,0.0,9.0,21,0.00,,SKC,0.00,VWS V14.01,2013-06-22 01:07:00,
2013-06-21 18:10:00,89.4,45.6,29.69,NW,307,0.0,9.0,22,0.00,,SKC,0.00,VWS V14.01,2013-06-22 01:10:00,
2013-06-21 18:12:00,89.1,45.3,29.69,NW,310,0.0,5.0,22,0.00,,SKC,0.00,VWS V14.01,2013-06-22 01:12:00,
2013-06-21 18:18:00,89.3,45.5,29.69,West,269,1.0,5.0,22,0.00,,SKC,0.00,VWS V14.01,2013-06-22 01:18:00,
2013-06-21 18:20:00,89.3,45.5,29.69,WNW,289,0.0,5.0,22,0.00,,SKC,0.00,VWS V14.01,2013-06-22 01:20:00,
2013-06-21 18:23:00,89.1,45.3,29.69,WSW,237,1.0,6.0,22,0.00,,SKC,0.00,VWS V14.01,2013-06-22 01:23:00,
2013-06-21 18:28:00,89.0,45.3,29.69,WSW,252,0.0,6.0,22,0.00,,SKC,0.00,VWS V14.01,2013-06-22 01:28:00,
2013-06-21 18:30:00,89.0,45.3,29.69,WSW,256,0.0,6.0,22,0.00,,SKC,0.00,VWS V14.01,2013-06-22 01:30:00,
2013-06-21 18:33:00,88.8,46.3,29.69,West,270,1.0,6.0,23,0.00,,SKC,0.00,VWS V14.01,2013-06-22 01:33:00,
2013-06-21 18:38:00,88.4,45.9,29.69,West,277,0.0,6.0,23,0.00,,SKC,0.00,VWS V14.01,2013-06-22 01:38:00,
2013-06-21 18:40:00,88.4,45.9,29.69,WSW,252,4.0,6.0,23,0.00,,SKC,0.00,VWS V14.01,2013-06-22 01:40:00,
2013-06-21 18:43:00,88.0,45.6,29.69,West,267,0.0,6.0,23,0.00,,SKC,0.00,VWS V14.01,2013-06-22 01:43:00,
2013-06-21 18:48:00,87.8,45.4,29.69,West,271,0.0,6.0,23,0.00,,SKC,0.00,VWS V14.01,2013-06-22 01:48:00,
2013-06-21 18:50:00,87.8,45.4,29.69,West,271,0.0,6.0,23,0.00,,SKC,0.00,VWS V14.01,2013-06-22 01:50:00,
2013-06-21 18:53:00,87.8,45.4,29.69,West,263,0.0,4.0,23,0.00,,SKC,0.00,VWS V14.01,2013-06-22 01:53:00,
2013-06-21 18:58:00,87.5,46.3,29.69,WNW,289,0.0,6.0,24,0.00,,SKC,0.00,VWS V14.01,2013-06-22 01:58:00,
2013-06-21 19:00:00,87.5,46.3,29.69,WNW,289,0.0,6.0,24,0.00,,SKC,0.00,VWS V14.01,2013-06-22 02:00:00,
2013-06-21 19:03:00,87.3,47.2,29.69,West,275,0.0,5.0,25,0.00,,SKC,0.00,VWS V14.01,2013-06-22 02:03:00,
2013-06-21 19:08:00,87.0,45.9,29.69,WNW,300,4.0,5.0,24,0.00,,SKC,0.00,VWS V14.01,2013-06-22 02:08:00,
2013-06-21 19:10:00,87.0,45.9,29.69,WNW,298,1.0,5.0,24,0.00,,SKC,0.00,VWS V14.01,2013-06-22 02:10:00,
2013-06-21 19:13:00,86.8,45.7,29.69,West,279,0.0,5.0,24,0.00,,SKC,0.00,VWS V14.01,2013-06-22 02:13:00,
2013-06-21 19:18:00,86.6,45.5,29.69,WNW,291,1.0,5.0,24,0.00,,SKC,0.00,VWS V14.01,2013-06-22 02:18:00,
2013-06-21 19:20:00,86.6,45.5,29.69,WNW,288,2.0,5.0,24,0.00,,SKC,0.00,VWS V14.01,2013-06-22 02:20:00,
2013-06-21 19:23:00,86.3,45.3,29.69,WNW,295,1.0,5.0,24,0.00,,SKC,0.00,VWS V14.01,2013-06-22 02:23:00,
2013-06-21 19:28:00,86.1,45.1,29.69,West,275,0.0,5.0,24,0.00,,SKC,0.00,VWS V14.01,2013-06-22 02:28:00,
2013-06-21 19:30:00,86.1,45.1,29.69,West,275,0.0,5.0,24,0.00,,SKC,0.00,VWS V14.01,2013-06-22 02:30:00,
2013-06-21 19:33:00,85.9,46.0,29.69,West,277,0.0,5.0,25,0.00,,SKC,0.00,VWS V14.01,2013-06-22 02:33:00,
2013-06-21 19:38:00,85.6,45.8,29.69,West,267,1.0,5.0,25,0.00,,SKC,0.00,VWS V14.01,2013-06-22 02:38:00,
2013-06-21 19:40:00,85.6,45.8,29.69,West,267,0.0,5.0,25,0.00,,SKC,0.00,VWS V14.01,2013-06-22 02:40:00,
2013-06-21 19:43:00,85.3,45.5,29.69,West,272,4.0,6.0,25,0.00,,SKC,0.00,VWS V14.01,2013-06-22 02:43:00,
2013-06-21 19:48:00,85.1,45.4,29.69,West,271,1.0,6.0,25,0.00,,SKC,0.00,VWS V14.01,2013-06-22 02:48:00,
2013-06-21 19:50:00,85.0,45.3,29.69,West,271,1.0,6.0,25,0.00,,SKC,0.00,VWS V14.01,2013-06-22 02:50:00,
2013-06-21 19:53:00,84.8,46.1,29.69,West,271,0.0,2.0,26,0.00,,SKC,0.00,VWS V14.01,2013-06-22 02:53:00,
2013-06-21 19:58:00,84.5,45.9,29.69,West,271,0.0,4.0,26,0.00,,SKC,0.00,VWS V14.01,2013-06-22 02:58:00,
2013-06-21 20:00:00,84.5,45.9,29.69,West,271,0.0,4.0,26,0.00,,SKC,0.00,VWS V14.01,2013-06-22 03:00:00,
2013-06-21 20:03:00,84.2,45.6,29.69,West,271,0.0,2.0,26,0.00,,SKC,0.00,VWS V14.01,2013-06-22 03:03:00,
2013-06-21 20:08:00,83.9,45.4,29.69,West,271,0.0,2.0,26,0.00,,SKC,0.00,VWS V14.01,2013-06-22 03:08:00,
2013-06-21 20:10:00,83.9,45.4,29.69,West,271,0.0,2.0,26,0.00,,SKC,0.00,VWS V14.01,2013-06-22 03:10:00,
2013-06-21 20:13:00,83.6,45.1,29.69,West,271,0.0,1.0,26,0.00,,SKC,0.00,VWS V14.01,2013-06-22 03:13:00,
2013-06-21 20:19:00,83.2,45.8,29.69,West,271,0.0,1.0,27,0.00,,SKC,0.00,VWS V14.01,2013-06-22 03:19:00,
2013-06-21 20:20:00,83.2,45.8,29.69,West,271,0.0,1.0,27,0.00,,SKC,0.00,VWS V14.01,2013-06-22 03:20:00,
2013-06-21 20:24:00,82.9,45.5,29.69,West,271,0.0,0.0,27,0.00,,SKC,0.00,VWS V14.01,2013-06-22 03:24:00,
2013-06-21 20:29:00,82.5,44.2,29.69,West,271,0.0,0.0,26,0.00,,SKC,0.00,VWS V14.01,2013-06-22 03:29:00,
2013-06-21 20:30:00,82.5,44.2,29.69,West,271,0.0,0.0,26,0.00,,SKC,0.00,VWS V14.01,2013-06-22 03:30:00,
2013-06-21 20:34:00,82.1,44.8,29.69,West,271,0.0,1.0,27,0.00,,SKC,0.00,VWS V14.01,2013-06-22 03:34:00,
2013-06-21 20:39:00,81.7,44.5,29.69,West,271,0.0,0.0,27,0.00,,SKC,0.00,VWS V14.01,2013-06-22 03:39:00,
2013-06-21 20:40:00,81.7,44.5,29.69,West,271,0.0,1.0,27,0.00,,SKC,0.00,VWS V14.01,2013-06-22 03:40:00,
2013-06-21 20:44:00,81.2,45.0,29.70,South,184,0.0,5.0,28,0.00,,SKC,0.00,VWS V14.01,2013-06-22 03:44:00,
2013-06-21 20:49:00,80.6,45.4,29.70,SSW,210,2.0,2.0,29,0.00,,SKC,0.00,VWS V14.01,2013-06-22 03:49:00,
2013-06-21 20:50:00,80.7,45.5,29.70,SW,214,0.0,6.0,29,0.00,,SKC,0.00,VWS V14.01,2013-06-22 03:50:00,
2013-06-21 20:54:00,80.2,46.9,29.70,SW,234,0.0,4.0,31,0.00,,SKC,0.00,VWS V14.01,2013-06-22 03:54:00,
2013-06-21 20:59:00,79.7,47.3,29.70,SW,233,0.0,1.0,32,0.00,,SKC,0.00,VWS V14.01,2013-06-22 03:59:00,
2013-06-21 21:00:00,79.8,47.3,29.70,SW,233,1.0,4.0,32,0.00,,SKC,0.00,VWS V14.01,2013-06-22 04:00:00,
2013-06-21 21:01:00,79.6,47.2,29.70,SW,233,1.0,1.0,32,0.00,,SKC,0.00,VWS V14.01,2013-06-22 04:01:00,
2013-06-21 21:02:00,79.5,47.1,29.70,SW,233,0.0,1.0,32,0.00,,SKC,0.00,VWS V14.01,2013-06-22 04:02:00,
2013-06-21 21:03:00,79.5,47.1,29.70,SW,233,0.0,1.0,32,0.00,,SKC,0.00,VWS V14.01,2013-06-22 04:03:00,
2013-06-21 21:08:00,79.1,47.6,29.70,SW,217,1.0,4.0,33,0.00,,SKC,0.00,VWS V14.01,2013-06-22 04:08:00,
2013-06-21 21:10:00,79.0,47.5,29.70,SW,217,1.0,4.0,33,0.00,,SKC,0.00,VWS V14.01,2013-06-22 04:10:00,
2013-06-21 21:13:00,78.8,47.3,29.70,WSW,241,0.0,4.0,33,0.00,,SKC,0.00,VWS V14.01,2013-06-22 04:13:00,
2013-06-21 21:18:00,78.6,47.1,29.70,WSW,241,0.0,4.0,33,0.00,,SKC,0.00,VWS V14.01,2013-06-22 04:18:00,
2013-06-21 21:20:00,78.5,47.8,29.70,WSW,241,0.0,4.0,34,0.00,,SKC,0.00,VWS V14.01,2013-06-22 04:20:00,
2013-06-21 21:23:00,78.3,47.7,29.70,WSW,242,0.0,1.0,34,0.00,,SKC,0.00,VWS V14.01,2013-06-22 04:23:00,
2013-06-21 21:28:00,78.0,48.2,29.70,WSW,252,0.0,4.0,35,0.00,,SKC,0.00,VWS V14.01,2013-06-22 04:28:00,
2013-06-21 21:30:00,78.0,48.2,29.70,WSW,250,0.0,4.0,35,0.00,,SKC,0.00,VWS V14.01,2013-06-22 04:30:00,
2013-06-21 21:33:00,77.8,48.0,29.70,WSW,250,0.0,1.0,35,0.00,,SKC,0.00,VWS V14.01,2013-06-22 04:33:00,
2013-06-21 21:38:00,77.5,48.5,29.70,WSW,250,0.0,1.0,36,0.00,,SKC,0.00,VWS V14.01,2013-06-22 04:38:00,
2013-06-21 21:40:00,77.4,48.4,29.70,WSW,250,0.0,1.0,36,0.00,,SKC,0.00,VWS V14.01,2013-06-22 04:40:00,
2013-06-21 21:43:00,77.1,48.1,29.71,WSW,250,0.0,2.0,36,0.00,,SKC,0.00,VWS V14.01,2013-06-22 04:43:00,
2013-06-21 21:48:00,76.9,48.7,29.71,WSW,250,0.0,2.0,37,0.00,,SKC,0.00,VWS V14.01,2013-06-22 04:48:00,
2013-06-21 21:50:00,76.8,48.6,29.71,WSW,250,0.0,2.0,37,0.00,,SKC,0.00,VWS V14.01,2013-06-22 04:50:00,
2013-06-21 21:53:00,76.6,48.4,29.71,WSW,250,0.0,1.0,37,0.00,,SKC,0.00,VWS V14.01,2013-06-22 04:53:00,
2013-06-21 21:58:00,76.3,49.5,29.71,WSW,250,0.0,1.0,39,0.00,,SKC,0.00,VWS V14.01,2013-06-22 04:58:00,
2013-06-21 22:00:00,76.3,49.5,29.71,WSW,250,0.0,1.0,39,0.00,,SKC,0.00,VWS V14.01,2013-06-22 05:00:00,
2013-06-21 22:03:00,75.8,49.8,29.71,WSW,250,0.0,0.0,40,0.00,,SKC,0.00,VWS V14.01,2013-06-22 05:03:00,
2013-06-21 22:08:00,75.4,49.4,29.71,WSW,250,0.0,0.0,40,0.00,,SKC,0.00,VWS V14.01,2013-06-22 05:08:00,
2013-06-21 22:10:00,75.3,49.3,29.71,WSW,250,0.0,0.0,40,0.00,,SKC,0.00,VWS V14.01,2013-06-22 05:10:00,
2013-06-21 22:13:00,74.9,49.0,29.71,WSW,250,0.0,0.0,40,0.00,,SKC,0.00,VWS V14.01,2013-06-22 05:13:00,
2013-06-21 22:18:00,74.4,49.2,29.71,WSW,250,0.0,0.0,41,0.00,,SKC,0.00,VWS V14.01,2013-06-22 05:18:00,
2013-06-21 22:20:00,74.4,49.2,29.71,WSW,250,0.0,0.0,41,0.00,,SKC,0.00,VWS V14.01,2013-06-22 05:20:00,
2013-06-21 22:23:00,73.9,49.4,29.71,WSW,250,0.0,0.0,42,0.00,,SKC,0.00,VWS V14.01,2013-06-22 05:23:00,
2013-06-21 22:28:00,73.4,49.6,29.71,WSW,250,0.0,0.0,43,0.00,,SKC,0.00,VWS V14.01,2013-06-22 05:28:00,
2013-06-21 22:30:00,73.4,50.2,29.71,WSW,250,0.0,0.0,44,0.00,,SKC,0.00,VWS V14.01,2013-06-22 05:30:00,
2013-06-21 22:33:00,72.8,49.6,29.71,WSW,250,0.0,0.0,44,0.00,,SKC,0.00,VWS V14.01,2013-06-22 05:33:00,
2013-06-21 22:38:00,72.2,49.1,29.71,WSW,250,0.0,0.0,44,0.00,,SKC,0.00,VWS V14.01,2013-06-22 05:38:00,
2013-06-21 22:40:00,72.2,49.1,29.71,WSW,250,0.0,0.0,44,0.00,,SKC,0.00,VWS V14.01,2013-06-22 05:40:00,
2013-06-21 22:43:00,71.7,48.0,29.71,WSW,250,0.0,0.0,43,0.00,,SKC,0.00,VWS V14.01,2013-06-22 05:43:00,
2013-06-21 22:48:00,71.2,47.6,29.71,WSW,250,0.0,1.0,43,0.00,,SKC,0.00,VWS V14.01,2013-06-22 05:48:00,
2013-06-21 22:50:00,71.2,47.6,29.71,WSW,250,0.0,1.0,43,0.00,,SKC,0.00,VWS V14.01,2013-06-22 05:50:00,
2013-06-21 22:53:00,70.7,47.7,29.71,WSW,250,0.0,0.0,44,0.00,,SKC,0.00,VWS V14.01,2013-06-22 05:53:00,
2013-06-21 22:58:00,70.2,47.3,29.71,WSW,250,0.0,0.0,44,0.00,,SKC,0.00,VWS V14.01,2013-06-22 05:58:00,
2013-06-21 23:00:00,70.2,47.3,29.71,WSW,250,0.0,0.0,44,0.00,,SKC,0.00,VWS V14.01,2013-06-22 06:00:00,
2013-06-21 23:03:00,69.7,46.8,29.71,WSW,250,0.0,0.0,44,0.00,,SKC,0.00,VWS V14.01,2013-06-22 06:03:00,
2013-06-21 23:08:00,69.4,46.6,29.71,WSW,250,0.0,0.0,44,0.00,,SKC,0.00,VWS V14.01,2013-06-22 06:08:00,
2013-06-21 23:10:00,69.4,46.6,29.71,WSW,250,0.0,0.0,44,0.00,,SKC,0.00,VWS V14.01,2013-06-22 06:10:00,
2013-06-21 23:13:00,69.1,46.9,29.71,WSW,250,0.0,0.0,45,0.00,,SKC,0.00,VWS V14.01,2013-06-22 06:13:00,
2013-06-21 23:18:00,68.8,46.6,29.71,WSW,250,0.0,0.0,45,0.00,,SKC,0.00,VWS V14.01,2013-06-22 06:18:00,
2013-06-21 23:20:00,68.8,46.6,29.71,WSW,250,0.0,0.0,45,0.00,,SKC,0.00,VWS V14.01,2013-06-22 06:20:00,
2013-06-21 23:24:00,68.6,47.0,29.71,WSW,250,0.0,0.0,46,0.00,,SKC,0.00,VWS V14.01,2013-06-22 06:24:00,
2013-06-21 23:29:00,68.4,47.4,29.71,WSW,250,1.0,1.0,47,0.00,,SKC,0.00,VWS V14.01,2013-06-22 06:29:00,
2013-06-21 23:30:00,68.4,47.4,29.71,WSW,250,0.0,1.0,47,0.00,,SKC,0.00,VWS V14.01,2013-06-22 06:30:00,
2013-06-21 23:34:00,68.1,46.6,29.71,WSW,250,0.0,1.0,46,0.00,,SKC,0.00,VWS V14.01,2013-06-22 06:34:00,
2013-06-21 23:39:00,68.1,46.6,29.71,WSW,250,0.0,0.0,46,0.00,,SKC,0.00,VWS V14.01,2013-06-22 06:39:00,
2013-06-21 23:40:00,68.1,46.6,29.71,WSW,250,0.0,2.0,46,0.00,,SKC,0.00,VWS V14.01,2013-06-22 06:40:00,
2013-06-21 23:44:00,68.0,46.5,29.71,WSW,250,0.0,1.0,46,0.00,,SKC,0.00,VWS V14.01,2013-06-22 06:44:00,
2013-06-21 23:49:00,67.9,46.4,29.71,WSW,250,0.0,1.0,46,0.00,,SKC,0.00,VWS V14.01,2013-06-22 06:49:00,
2013-06-21 23:50:00,67.9,46.4,29.71,WSW,250,1.0,4.0,46,0.00,,SKC,0.00,VWS V14.01,2013-06-22 06:50:00,
2013-06-21 23:54:00,67.9,46.4,29.71,WSW,250,0.0,2.0,46,0.00,,SKC,0.00,VWS V14.01,2013-06-22 06:54:00,
2013-06-21 23:59:00,67.9,46.4,29.71,WSW,250,0.0,0.0,46,0.00,,SKC,0.00,VWS V14.01,2013-06-22 06:59:00,